[[{"header":{"parameterUnit":"m.s-1","parameterCategory":1,"la1":30.2991,"la2":30.254,"lo1":-89.0895,"lo2":-89.0444,"dx":0.0017,"dy":0.0017,"nx":28,"ny":28,"refTime":"2023-02-12T09:00:00:Z","depth":0,"parameterNumber":2,"parameterNumberName":"U-component_of_WINDS"},"data":[0,0,0,0,0,0,0,0,0,0,0,0,0,0,0,0,0,0,0,0,0,0,0,0,0,0,0,0,0,0,0,0,0,0,0,0,0,0,0,0,0,0,0,0,0,0,0,0,0,0,0,0,0,0,0,0,0,0,9.3585,9.3588,0,9.3877,9.388,9.3883,9.3851,9.3847,9.3842,9.3838,9.4135,9.4147,9.4159,0,0,0,0,0,0,0,0,0,0,0,0,0,9.2998,9.3009,9.3584,9.3588,9.3592,9.3876,9.388,9.3884,9.3852,9.3846,9.3841,9.3835,9.4131,9.4145,9.416,0,0,0,0,0,0,0,0,0,0,0,0,0,9.3268,9.3013,9.3584,9.361,9.3615,9.3876,9.388,9.3885,9.3853,9.3846,9.3839,9.3833,9.4126,9.4144,9.4162,9.4414,0,0,9.4218,9.4226,0,0,0,0,0,0,0,0,9.3253,9.3289,9.3602,9.3609,9.3615,9.382,9.3783,9.4063,9.3855,9.3763,9.3837,9.3829,9.4036,9.4061,9.4131,9.4428,9.4441,9.422,9.4231,9.4239,9.4244,0,0,0,0,0,0,0,9.3234,9.3277,9.37,9.3607,9.3615,9.3607,9.3638,9.3836,9.3935,9.377,9.3769,9.3804,9.4038,9.4114,9.4138,9.4445,9.4219,9.4236,9.4247,9.4254,9.4968,9.4975,0,0,0,0,0,0,9.3209,9.3261,9.3691,9.3709,9.3413,9.3623,9.3658,9.3762,9.3932,9.3952,9.3809,9.3801,9.4086,9.4116,9.4148,9.4457,9.4239,9.4256,9.4266,9.496,9.4969,9.4978,0,0,0,0,0,0,9.3197,9.3248,9.3679,9.3485,9.3539,9.3641,9.3758,9.3771,9.3847,9.3962,9.3979,9.3869,9.4081,9.4122,9.4349,9.4467,9.4264,9.4281,9.495,9.4963,9.4974,9.5075,0,0,0,0,0,0,9.318,9.3243,9.334,9.3487,9.355,9.3875,9.3765,9.3782,9.3879,9.3871,9.4022,9.4041,9.4079,9.4322,9.4368,9.4488,9.4295,9.494,9.4956,9.497,9.5062,9.5089,9.5112,0,0,0,0,0,9.3159,9.3356,9.3345,9.3397,9.3673,9.3882,9.3918,9.3959,9.3888,9.3986,9.4061,9.4036,9.4447,9.4346,9.4397,9.4524,9.4933,9.4951,9.4969,9.505,9.5083,9.5112,0,0,0,0,0,0,9.3218,9.3375,9.3365,9.3616,9.3736,9.3876,9.4001,9.3992,9.4134,9.4121,9.4165,9.4199,9.4429,9.4499,9.4384,9.4779,9.468,9.4709,9.4725,9.4757,9.4782,9.476,9.431,0,0,0,0,0,9.3261,9.3418,9.3546,9.3755,9.3816,9.3899,9.3991,9.4013,9.4139,9.4189,9.428,9.4403,9.456,9.4663,9.4813,9.5072,9.5105,9.5185,9.521,9.5231,9.5255,9.5399,9.5437,9.5037,9.5037,9.5036,0,0,9.3349,9.3455,9.3551,9.377,9.3865,9.4028,9.3941,9.4116,9.4237,9.4215,9.4436,9.4508,9.4648,9.4892,9.5005,9.4958,9.5373,9.5254,9.5269,9.5283,9.5422,9.5459,9.5493,9.5049,9.5047,9.5045,0,0,9.3594,9.3689,9.3874,9.3973,9.412,9.4174,9.4218,9.4362,9.4409,9.4631,9.4619,9.4764,9.5033,9.5134,9.5221,9.5508,9.549,9.5556,9.5688,9.5828,9.5859,9.5887,9.5991,9.6028,9.558,9.558,9.558,0,9.3685,9.3929,9.397,9.4148,9.4245,9.4235,9.4424,9.4517,9.4705,9.4773,9.4718,9.5058,9.5152,9.5421,9.5492,9.5562,9.5615,9.5538,9.5851,9.588,9.5907,9.6007,9.6045,9.5587,9.5586,9.5585,9.5585,0,9.4035,9.4205,9.4337,9.4521,9.4633,9.4815,9.4885,9.4993,9.5006,9.5066,9.5294,9.5406,9.5581,9.5646,9.5659,9.5919,9.5886,9.5841,9.5743,9.5952,9.6046,9.6084,9.5597,9.5594,9.5592,9.5591,0,0,9.4323,9.453,9.4578,9.4662,9.4825,9.4957,9.514,9.5312,9.5405,9.5536,9.5691,9.592,9.5881,9.598,9.6004,9.6128,9.635,9.6068,9.6072,9.6117,9.6645,9.6677,9.6721,9.634,9.6347,9.6353,9.6633,0,9.4585,9.4908,9.4952,9.5239,9.5397,9.5391,9.555,9.5668,9.573,9.5873,9.5941,9.6104,9.6039,9.6099,9.6221,9.6297,9.6456,9.6277,9.6485,9.6491,9.645,9.677,9.6805,9.7063,9.667,9.6676,9.6681,0,9.4932,9.5075,9.5378,9.5522,9.559,9.5732,9.5895,9.6032,9.6166,9.6202,9.6314,9.6325,9.6514,9.6409,9.6671,9.6549,9.6637,9.6687,9.6698,9.6719,9.6599,9.68,9.7147,9.7186,9.6739,9.6734,9.673,0,9.5114,9.5381,9.5598,9.567,9.5843,9.5944,9.602,9.6147,9.6249,9.6391,9.6458,9.662,9.6708,9.6834,9.6888,9.6806,9.7149,9.7047,9.7185,9.7184,9.7257,9.7252,9.7623,9.7313,9.7312,9.7312,9.7311,0,9.5401,9.5587,9.5682,9.5815,9.6024,9.6073,9.6278,9.6351,9.6465,9.6613,9.6617,9.6756,9.6819,9.6967,9.7011,9.7223,9.7263,9.7298,9.7308,9.7298,9.7294,9.7356,9.734,9.7322,9.732,9.7318,9.7316,0,9.5639,9.571,9.5946,9.6091,9.6132,9.6279,9.6404,9.6533,9.6595,9.6782,9.6829,9.6925,9.7101,9.7168,9.7381,9.7411,9.7656,9.7651,9.7611,9.7614,9.7749,9.7735,9.8173,9.8234,9.7883,9.7886,9.7889,0,9.5818,9.5961,9.6122,9.6222,9.6303,9.6463,9.6568,9.6622,9.6731,9.6896,9.7006,9.7181,9.7324,9.7605,9.7694,9.7858,9.7857,9.8,9.7882,9.7869,9.7861,9.7852,9.7867,9.8021,9.8025,9.8028,9.803,0,9.6128,9.6157,9.6308,9.6472,9.6597,9.6729,9.6857,9.6938,9.7012,9.7134,9.7314,9.7426,9.7645,9.782,9.7989,9.8068,9.8063,9.8067,9.8108,9.8099,9.8071,9.8089,9.7671,9.8056,9.8054,9.8052,9.805,9.8049,9.6343,9.6471,9.6605,9.6774,9.6876,9.6996,9.7126,9.7205,9.7356,9.754,9.7563,9.7757,9.789,9.8117,9.8203,9.8356,9.8318,9.8377,9.8392,9.8406,9.8416,9.8047,9.8387,9.8386,9.8386,9.8385,9.8385,0,9.6655,9.6742,9.6896,9.7076,9.7209,9.7194,9.7335,9.7447,9.7618,9.7743,9.7884,9.8093,9.8262,9.8366,9.8537,9.864,9.8642,9.8683,9.8676,9.8695,9.8439,9.8387,9.8679,9.8679,9.8679,9.8678,9.8678,9.8678,9.6833,9.7049,9.7094,9.7362,9.7447,9.7638,9.7721,9.7832,9.7932,9.8165,9.8306,9.8373,9.849,9.867,9.8826,9.8852,9.8915,9.896,9.8983,9.8743,9.8712,9.8683,9.8635,9.8973,9.8974,9.9226,9.9228,9.923]},{"header":{"parameterUnit":"m.s-1","parameterCategory":1,"la1":30.2991,"la2":30.254,"lo1":-89.0895,"lo2":-89.0444,"dx":0.0017,"dy":0.0017,"nx":28,"ny":28,"refTime":"2023-02-12T09:00:00:Z","depth":0,"parameterNumber":3,"parameterNumberName":"V-component_of_WINDS"},"data":[0,0,0,0,0,0,0,0,0,0,0,0,0,0,0,0,0,0,0,0,0,0,0,0,0,0,0,0,0,0,0,0,0,0,0,0,0,0,0,0,0,0,0,0,0,0,0,0,0,0,0,0,0,0,0,0,0,0,-3.9342,-3.9344,0,-3.9512,-3.9514,-3.9516,-3.9529,-3.9527,-3.9525,-3.9524,-3.9696,-3.9702,-3.9709,0,0,0,0,0,0,0,0,0,0,0,0,0,-3.9027,-3.9033,-3.9342,-3.9344,-3.9346,-3.9512,-3.9514,-3.9517,-3.9529,-3.9527,-3.9525,-3.9523,-3.9694,-3.9702,-3.9709,0,0,0,0,0,0,0,0,0,0,0,0,0,-3.9177,-3.9034,-3.9341,-3.9372,-3.9377,-3.9512,-3.9515,-3.9517,-3.953,-3.9527,-3.9524,-3.9522,-3.9692,-3.9701,-3.971,-3.9825,0,0,-3.9739,-3.9744,0,0,0,0,0,0,0,0,-3.9169,-3.9189,-3.9366,-3.937,-3.9376,-3.9497,-3.9467,-3.9621,-3.9531,-3.9472,-3.9524,-3.952,-3.9632,-3.9646,-3.9684,-3.9833,-3.9841,-3.974,-3.9746,-3.975,-3.9753,0,0,0,0,0,0,0,-3.9158,-3.9181,-3.9409,-3.9368,-3.9374,-3.9378,-3.9396,-3.9496,-3.9565,-3.9477,-3.9478,-3.9498,-3.9634,-3.9675,-3.9688,-3.9843,-3.974,-3.9748,-3.9754,-3.9758,-4.0098,-4.0101,0,0,0,0,0,0,-3.9142,-3.9173,-3.9404,-3.9414,-3.9263,-3.9386,-3.9406,-3.9461,-3.9564,-3.9578,-3.95,-3.9498,-3.966,-3.9677,-3.9695,-3.9838,-3.975,-3.9759,-3.9764,-4.0095,-4.0099,-4.0102,0,0,0,0,0,0,-3.9135,-3.9162,-3.9397,-3.9294,-3.9324,-3.9394,-3.9455,-3.9465,-3.9506,-3.9582,-3.9595,-3.9529,-3.9659,-3.9681,-3.9793,-3.9844,-3.9763,-3.9772,-4.0091,-4.0096,-4.01,-4.0124,0,0,0,0,0,0,-3.9126,-3.916,-3.9204,-3.9295,-3.933,-3.9493,-3.9458,-3.9471,-3.9523,-3.9522,-3.9613,-3.9625,-3.9658,-3.9779,-3.9803,-3.9856,-3.9779,-4.0087,-4.0093,-4.0099,-4.0119,-4.0129,-4.0138,0,0,0,0,0,-3.9115,-3.9203,-3.9206,-3.9234,-3.9386,-3.9496,-3.9516,-3.9552,-3.9527,-3.9572,-3.9622,-3.9622,-3.9835,-3.9791,-3.9817,-3.9874,-4.0083,-4.0091,-4.0098,-4.0115,-4.0127,-4.0138,0,0,0,0,0,0,-3.9115,-3.9215,-3.922,-3.934,-3.941,-3.9498,-3.9556,-3.9564,-3.9641,-3.9636,-3.9678,-3.9699,-3.981,-3.9853,-3.9802,-3.9992,-3.9956,-3.997,-3.996,-3.9972,-3.9981,-3.9969,-3.9787,0,0,0,0,0,-3.9129,-3.921,-3.9293,-3.9391,-3.9426,-3.9485,-3.9534,-3.9556,-3.963,-3.9659,-3.9716,-3.9787,-3.987,-3.9923,-4.0003,-4.0125,-4.0146,-4.0177,-4.0187,-4.0194,-4.0205,-4.0275,-4.0291,-4.0127,-4.0127,-4.0127,0,0,-3.9159,-3.9224,-3.9272,-3.9393,-3.9449,-3.9532,-3.9509,-3.9597,-3.966,-3.9672,-3.9782,-3.9827,-3.9908,-4.0027,-4.0082,-4.0066,-4.0255,-4.0204,-4.0209,-4.0216,-4.0285,-4.03,-4.0314,-4.0132,-4.0131,-4.013,0,0,-3.9256,-3.9313,-3.9402,-3.9459,-3.9546,-3.9585,-3.9606,-3.9694,-3.9725,-3.9836,-3.9848,-3.9922,-4.0063,-4.0122,-4.017,-4.0292,-4.0297,-4.0317,-4.0366,-4.0434,-4.0447,-4.0459,-4.0504,-4.0519,-4.0328,-4.0328,-4.0328,0,-3.9282,-3.9408,-3.9446,-3.9536,-3.9589,-3.9605,-3.9696,-3.975,-3.9857,-3.9894,-3.9875,-4.0055,-4.0111,-4.0244,-4.0274,-4.0312,-4.0339,-4.0307,-4.0442,-4.0454,-4.0466,-4.0509,-4.0526,-4.033,-4.033,-4.0329,-4.0329,0,-3.9437,-3.9524,-3.9586,-3.9691,-3.9751,-3.9841,-3.9893,-3.995,-3.9967,-4.0009,-4.0123,-4.0191,-4.0287,-4.032,-4.0337,-4.0457,-4.0445,-4.0433,-4.0399,-4.0483,-4.0525,-4.0541,-4.0333,-4.0332,-4.0331,-4.0331,0,0,-3.9538,-3.9665,-3.9687,-3.9736,-3.9833,-3.9901,-3.9992,-4.0087,-4.0135,-4.0209,-4.0287,-4.0408,-4.0399,-4.0454,-4.0478,-4.0538,-4.0633,-4.052,-4.0522,-4.054,-4.0771,-4.0779,-4.0798,-4.0636,-4.0639,-4.0642,-4.0764,0,-3.9647,-3.981,-3.9848,-3.9988,-4.007,-4.0087,-4.0167,-4.0235,-4.0277,-4.0353,-4.0398,-4.0484,-4.0465,-4.0498,-4.0558,-4.0608,-4.068,-4.06,-4.071,-4.0713,-4.069,-4.0819,-4.0828,-4.094,-4.0781,-4.0783,-4.0785,0,-3.9796,-3.9875,-4.0023,-4.0112,-4.0148,-4.0219,-4.031,-4.0382,-4.046,-4.0487,-4.0549,-4.0568,-4.0664,-4.0625,-4.0759,-4.0704,-4.0751,-4.0783,-4.0788,-4.08,-4.0755,-4.0836,-4.0976,-4.0994,-4.0811,-4.0809,-4.0807,0,-3.9857,-4.0,-4.0108,-4.0149,-4.0255,-4.0305,-4.0351,-4.0427,-4.0482,-4.0562,-4.0598,-4.0687,-4.0736,-4.0805,-4.0848,-4.0815,-4.0979,-4.0943,-4.1004,-4.1004,-4.1038,-4.1036,-4.1189,-4.1067,-4.1067,-4.1066,-4.1066,0,-3.9975,-4.0065,-4.0137,-4.0204,-4.0306,-4.035,-4.045,-4.0496,-4.0564,-4.064,-4.066,-4.0732,-4.0784,-4.0862,-4.0896,-4.1003,-4.1025,-4.1049,-4.1057,-4.1048,-4.1045,-4.108,-4.1074,-4.1071,-4.107,-4.1069,-4.1068,0,-4.006,-4.0112,-4.0231,-4.0323,-4.0348,-4.0419,-4.0497,-4.0563,-4.0606,-4.0702,-4.0727,-4.0794,-4.0888,-4.0938,-4.1054,-4.1078,-4.1198,-4.1201,-4.1172,-4.1175,-4.1235,-4.1229,-4.1417,-4.1445,-4.1303,-4.1304,-4.1305,0,-4.0133,-4.0204,-4.0303,-4.0356,-4.0404,-4.0488,-4.0546,-4.0591,-4.065,-4.0746,-4.0801,-4.0896,-4.0975,-4.1124,-4.1183,-4.1273,-4.1279,-4.1339,-4.1293,-4.1282,-4.1282,-4.1278,-4.1286,-4.1347,-4.1349,-4.135,-4.135,0,-4.0258,-4.028,-4.0362,-4.0453,-4.0521,-4.0595,-4.0668,-4.071,-4.0768,-4.0833,-4.093,-4.0991,-4.1112,-4.1207,-4.1302,-4.135,-4.1361,-4.1365,-4.1384,-4.1376,-4.1357,-4.137,-4.1195,-4.136,-4.1359,-4.1358,-4.1358,-4.1358,-4.034,-4.0404,-4.0485,-4.0576,-4.0636,-4.0704,-4.0771,-4.0823,-4.0905,-4.1007,-4.1029,-4.1132,-4.1211,-4.134,-4.1391,-4.1473,-4.1461,-4.1488,-4.1495,-4.1502,-4.1505,-4.1343,-4.149,-4.149,-4.1489,-4.1489,-4.1489,0,-4.0467,-4.052,-4.0603,-4.0706,-4.0778,-4.0782,-4.0864,-4.0924,-4.1015,-4.1087,-4.1165,-4.1278,-4.137,-4.1437,-4.1532,-4.1584,-4.1592,-4.1608,-4.1605,-4.1616,-4.151,-4.1484,-4.16,-4.16,-4.16,-4.16,-4.16,-4.16,-4.0542,-4.0651,-4.0684,-4.0824,-4.0876,-4.0978,-4.1025,-4.1088,-4.1147,-4.1272,-4.135,-4.1393,-4.1464,-4.1565,-4.165,-4.1668,-4.1702,-4.1718,-4.1736,-4.1635,-4.1623,-4.1612,-4.1589,-4.1725,-4.1725,-4.1836,-4.1837,-4.1838]}]]